This demonstration page uses our WeatherBlox Daily Observations layout. Learn more.

Left ArrowRight Arrow

34.74481, -87.66753

Hourly Observations for April 12, 2015

Temp ( °F °C ) Dew Point ( °F °C ) Humidity (%) Winds ( mph kmh ) Pressure ( in mb ) Visibility ( mi km ) Precip ( " mm )
12:53 am 00:53 Clear 51 10.6 46 7.8 83 83 Calm 30.12 1020 10 16 0.00 0.00
1:53 am 01:53 Clear 50 10 45 7.2 83 83 Calm 30.12 1020 10 16 0.00 0.00
2:53 am 02:53 Clear 49 9.4 44 6.7 83 83 Calm 30.12 1020 10 16 0.00 0.00
3:53 am 03:53 Clear 49 9.4 43 6.1 80 80 Calm 30.11 1020 10 16 0.00 0.00
4:53 am 04:53 Clear 47 8.3 43 6.1 86 86 Calm 30.11 1020 10 16 0.00 0.00
5:53 am 05:53 Clear 47 8.3 43 6.1 86 86 Calm 30.12 1020 10 16 0.00 0.00
6:53 am 06:53 Sunny 47 8.3 44 6.7 90 90 Calm 30.14 1021 7 11 0.00 0.00
7:53 am 07:53 Sunny 52 11.1 46 7.8 80 80 Calm 30.15 1021 10 16 0.00 0.00
8:53 am 08:53 Sunny 58 14.4 45 7.2 62 62 E 5 7 30.16 1021 10 16 0.00 0.00
9:53 am 09:53 Sunny 63 17.2 45 7.2 52 52 SE 8 13 30.15 1021 10 16 0.00 0.00
10:53 am 10:53 Sunny 68 20 46 7.8 45 45 SSE 8 13 30.16 1021 10 16 0.00 0.00
11:53 am 11:53 Sunny 75 23.9 47 8.3 37 37 VRB 6 9 30.14 1021 10 16 0.00 0.00
12:53 pm 12:53 Sunny 78 25.6 45 7.2 31 31 SSE 12 19 30.11 1020 10 16 0.00 0.00
1:53 pm 13:53 Sunny 80 26.7 43 6.1 27 27 S 8 13 30.08 1019 10 16 0.00 0.00
2:53 pm 14:53 Sunny 81 27.2 43 6.1 26 26 S 9 15 30.06 1018 10 16 0.00 0.00
3:53 pm 15:53 Sunny 81 27.2 44 6.7 27 27 SE 9 15 30.04 1017 10 16 0.00 0.00
4:53 pm 16:53 Sunny 80 26.7 45 7.2 29 29 SE 8 13 30.05 1018 10 16 0.00 0.00
5:53 pm 17:53 Sunny 76 24.4 49 9.4 39 39 SSE 9 15 30.04 1017 10 16 0.00 0.00
6:53 pm 18:53 Sunny 73 22.8 52 11.1 48 48 SSE 6 9 30.06 1018 10 16 0.00 0.00
7:53 pm 19:53 Clear 67 19.4 52 11.1 59 59 SE 5 7 30.06 1018 10 16 0.00 0.00
8:53 pm 20:53 Clear 66 18.9 54 12.2 65 65 SE 6 9 30.08 1019 10 16 0.00 0.00
9:53 pm 21:53 Clear 64 17.8 55 12.8 73 73 SE 5 7 30.08 1019 10 16 0.00 0.00
10:53 pm 22:53 Partly Cloudy 68 20 57 13.9 68 68 SE 9 15 30.09 1019 10 16 0.00 0.00
11:53 pm 23:53 Mostly Clear 68 20 61 16.1 78 78 SE 8 13 30.09 1019 10 16 0.00 0.00

Powered by AerisWeather